Wind_Speed
37 38 39 39 40 41 42 43 44 45 46 47 47 48 49 49 50 51 52 53 54 55 55 56 58 59 59 60 61 62 63 64 65 65 66 67 68 69 70 71 72 73 74
38 39 40 41 41 43 44 45 46 47 48 48 49 49 50 51 52 53 54 54 55 56 57 58 58 60 60 61 62 63 64 66 67 67 67 69 70 72 73 74 75 76 76
40 40 41 42 43 44 46 47 47 48 49 50 50 51 52 53 53 54 55 55 56 57 58 59 60 61 62 63 64 65 67 68 69 70 70 71 72 73 75 75 75 75 75
41 42 43 44 44 45 46 47 48 49 50 51 52 52 53 54 55 55 56 56 57 59 60 61 62 63 64 65 66 67 69 70 71 72 72 72 73 74 75 75 74 73 72
42 43 44 45 45 46 48 49 50 51 52 52 53 54 55 55 56 57 57 58 59 60 61 62 64 65 66 67 69 70 71 71 72 73 73 73 74 75 75 75 73 71 68
43 44 45 46 47 48 49 50 51 52 53 53 54 55 56 57 58 59 60 60 61 63 63 64 65 67 68 69 71 72 73 73 74 75 75 75 75 75 74 72 70 67 64
44 45 46 47 48 49 50 51 52 53 54 55 55 57 58 59 60 61 62 63 64 65 66 67 68 69 71 71 72 72 73 75 76 77 76 75 74 72 71 68 66 63 60
44 45 47 48 49 50 51 52 53 54 55 56 57 58 60 61 62 63 64 66 66 67 68 70 71 72 73 74 74 74 74 75 76 76 75 73 71 69 67 64 61 58 55
45 46 47 48 49 51 52 53 55 56 57 58 59 60 61 62 64 66 67 68 68 69 71 72 74 74 74 76 77 76 75 74 74 73 72 70 67 65 62 60 56 53 49
46 47 48 49 51 52 54 55 56 57 58 60 61 62 64 65 67 68 70 71 72 72 73 74 75 76 76 77 78 77 75 73 72 70 68 65 62 59 57 54 51 49 45
47 48 49 51 52 54 55 56 58 59 60 62 63 64 66 68 69 71 73 74 75 75 75 75 76 76 77 77 77 76 75 72 69 66 63 59 56 54 51 49 47 45 41
48 49 51 52 54 55 57 58 60 61 62 63 65 66 68 70 72 74 75 77 78 78 77 77 77 77 77 77 76 74 71 68 65 61 57 53 50 48 46 44 42 40 37
49 51 52 54 55 57 58 60 61 63 65 66 68 69 70 72 74 76 77 78 79 79 78 78 78 77 76 74 72 69 66 62 59 55 51 47 45 43 41 39 37 35 33
50 52 54 55 56 58 60 61 63 65 67 69 71 72 74 75 76 78 78 79 78 79 79 78 77 75 73 70 66 62 59 56 53 50 46 43 41 39 37 35 33 31 30
52 53 55 56 58 59 61 63 65 67 70 72 74 76 77 77 78 79 79 79 79 80 79 77 75 71 67 63 59 56 53 51 48 45 41 38 37 35 33 32 30 29 28
53 54 56 58 59 61 63 65 67 70 72 75 77 78 79 79 79 80 80 80 80 79 78 74 70 65 61 58 54 51 48 46 43 39 37 36 34 32 31 30 28 27 26
55 56 58 60 62 64 67 69 70 72 74 76 77 78 80 81 81 81 81 80 78 75 72 68 64 60 57 53 50 46 43 40 37 36 35 33 32 31 29 28 27 26 25
57 59 61 63 65 67 70 72 74 75 75 75 77 79 81 82 81 80 78 76 72 69 66 62 59 56 53 49 45 42 38 35 34 33 32 31 29 28 27 26 25 25 24
59 62 64 66 68 70 72 74 76 77 78 78 79 80 81 80 78 75 73 70 66 62 60 58 55 51 48 44 41 38 35 33 32 31 30 28 27 26 24 24 23 23 22
63 65 67 69 71 73 75 76 77 78 80 81 81 80 78 76 72 68 65 62 60 58 56 53 50 47 43 40 37 35 33 31 30 29 28 27 25 24 23 22 22 22 22
66 68 70 72 74 75 77 78 79 81 82 81 79 76 74 71 66 61 58 57 56 54 51 48 45 42 39 36 34 32 30 29 28 27 26 25 23 23 22 21 21 21 21
69 71 72 74 75 77 78 79 80 81 80 77 74 71 68 65 61 57 55 54 52 49 46 43 40 37 35 33 31 29 28 27 27 26 24 23 22 22 21 21 21 21 20
71 73 74 75 77 78 79 79 79 78 76 73 70 67 63 60 57 54 52 49 47 44 42 40 37 34 32 30 29 27 26 26 25 24 23 22 22 21 21 21 21 21 21
73 74 75 77 78 78 78 77 76 73 70 68 65 63 59 57 54 51 48 46 44 41 39 37 35 32 30 29 28 26 25 24 24 23 23 22 22 21 21 21 21 21 21
74 76 77 78 77 76 75 73 71 68 66 64 62 59 56 53 50 47 44 43 41 39 37 35 33 31 29 27 26 25 25 24 24 23 23 22 22 22 22 22 22 22 22
75 76 76 76 74 72 71 68 66 64 63 61 58 55 52 49 46 43 41 40 38 36 34 32 30 29 27 26 26 25 25 24 24 24 23 22 22 23 23 23 23 23 23
Wind_Direction
281 284 287 289 290 292 293 294 295 296 297 297 298 298 298 298 298 298 298 298 298 298 298 298 298 298 298 297 297 297 297 296 296 296 296 295 295 294 294 293 293 292 291
283 285 287 289 291 292 293 294 295 296 297 298 298 298 298 298 299 299 299 299 299 299 299 299 299 299 298 298 298 297 297 297 297 297 296 296 296 295 295 295 294 294 293
284 286 288 290 292 293 294 295 296 297 297 298 299 299 299 299 299 299 299 299 300 300 300 300 299 299 299 298 298 298 298 298 297 297 297 297 296 296 296 295 295 294 293
286 287 289 291 293 294 295 296 297 297 298 299 299 300 300 300 300 300 300 301 301 301 301 301 300 300 299 299 299 299 298 298 298 298 298 298 297 297 296 296 295 294 293
287 289 290 292 293 294 295 296 297 297 298 299 300 300 301 301 301 301 301 302 302 302 302 302 301 301 300 300 300 299 299 299 298 298 298 298 298 297 297 296 295 293 292
287 289 290 292 293 294 295 296 297 298 299 300 300 301 301 302 302 302 302 302 302 303 302 302 301 301 301 301 301 301 300 300 300 299 299 299 299 298 297 296 294 293 291
288 289 291 292 293 294 295 296 297 298 299 300 300 301 302 302 302 302 303 303 303 303 303 302 302 302 302 301 301 301 301 301 300 300 300 300 299 298 297 296 294 293 292
289 290 291 292 293 295 296 297 298 299 300 301 301 302 302 302 302 302 303 303 304 303 303 303 303 303 302 302 301 301 301 301 300 300 300 300 299 299 297 296 294 293 292
290 291 292 293 294 295 297 298 298 299 300 301 302 302 303 303 303 303 303 303 303 303 303 303 303 303 302 302 302 302 301 301 300 300 300 299 299 298 296 295 294 292 291
290 292 293 294 295 296 297 298 299 300 301 302 302 303 303 303 304 304 304 303 303 303 303 303 303 303 302 302 302 302 302 301 300 299 299 298 297 296 295 294 293 292 291
292 293 294 295 296 297 298 299 300 301 301 302 303 303 304 304 304 304 304 304 304 304 304 303 303 303 303 303 303 302 302 300 299 299 298 296 295 294 293 292 291 291 289
293 294 295 297 298 299 299 300 300 301 302 302 303 303 304 304 304 304 304 304 304 304 304 304 304 303 303 303 302 302 301 300 299 298 297 296 294 293 292 291 290 289 287
295 296 297 298 298 299 300 300 301 302 302 303 303 304 304 304 304 304 304 304 305 305 305 305 305 304 304 303 302 301 300 299 299 298 297 295 293 293 292 290 288 287 286
296 297 298 298 299 300 301 302 302 303 303 304 304 304 305 305 305 304 304 305 305 304 305 305 305 305 303 302 301 300 299 299 298 297 296 294 293 292 290 288 286 285 284
298 298 299 300 300 301 302 303 303 304 304 305 305 305 306 306 305 305 305 305 305 305 305 305 304 304 302 301 300 299 298 298 297 295 294 293 292 291 288 286 285 284 282
299 299 300 301 301 302 303 303 304 305 305 306 306 306 306 306 306 306 306 305 305 305 305 305 305 304 303 301 300 298 297 296 294 293 292 292 291 289 287 284 283 281 280
300 300 301 302 302 303 304 304 305 305 306 306 307 307 307 307 307 306 306 305 305 305 305 305 304 304 303 302 300 298 296 294 292 291 291 290 289 288 285 282 280 279 278
301 302 302 303 304 304 305 305 305 306 306 307 307 307 307 307 307 306 306 305 305 305 304 304 304 303 302 301 299 297 295 292 291 290 290 289 287 286 283 280 278 277 277
302 303 303 304 304 305 305 305 306 307 307 307 308 307 307 307 307 307 306 306 306 305 304 304 303 302 301 299 297 295 293 291 290 289 289 287 286 284 281 279 277 276 275
303 303 304 304 304 305 305 306 306 307 308 308 309 308 308 308 307 307 306 306 305 305 305 304 302 301 300 297 295 293 291 289 288 288 288 285 283 282 279 276 275 274 273
303 304 304 304 305 305 306 306 307 307 308 309 309 309 309 309 308 307 306 306 306 305 305 304 302 301 299 296 294 291 289 287 287 287 286 283 280 280 278 275 273 272 271
304 304 304 305 305 306 306 307 307 308 309 309 309 309 309 308 308 307 307 307 306 305 304 304 302 300 298 296 293 290 287 286 285 285 283 280 278 277 276 273 271 270 269
304 304 305 305 306 306 307 308 308 309 309 309 309 309 308 308 307 307 307 306 306 305 304 303 302 299 297 294 292 289 286 284 282 282 281 278 276 275 273 272 270 268 267
304 305 306 306 307 307 308 308 309 309 309 309 309 309 308 307 306 305 304 304 305 304 303 302 300 297 294 292 290 288 284 282 280 279 279 276 274 273 271 270 269 269 268
305 305 306 307 307 308 308 309 309 309 309 309 309 308 307 306 306 304 303 303 303 302 302 301 298 295 292 290 289 286 283 281 279 278 277 275 272 271 270 269 269 268 267
306 306 307 308 308 309 309 310 310 310 309 309 308 307 307 306 306 304 303 303 302 302 301 300 298 294 291 288 287 285 282 280 279 278 277 275 272 271 270 268 267 266 266
Height
5728 5727 5725 5722 5720 5717 5714 5710 5707 5703 5699 5695 5691 5687 5682 5678 5673 5669 5664 5659 5655 5649 5644 5639 5634 5628 5623 5617 5612 5606 5600 5595 5592 5590 5583 5577 5571 5566 5561 5556 5550 5546 5541
5720 5718 5715 5713 5710 5707 5703 5700 5696 5692 5688 5684 5679 5675 5670 5666 5661 5656 5651 5646 5641 5636 5630 5625 5619 5613 5608 5602 5596 5590 5584 5578 5573 5570 5566 5558 5552 5545 5539 5534 5528 5522 5517
5711 5708 5706 5703 5700 5696 5693 5689 5685 5681 5677 5672 5668 5663 5658 5653 5648 5643 5638 5633 5627 5622 5616 5610 5604 5598 5592 5586 5579 5573 5566 5560 5554 5549 5545 5539 5532 5524 5518 5512 5506 5500 5494
5701 5698 5696 5693 5689 5686 5682 5678 5674 5669 5665 5660 5655 5650 5645 5640 5635 5629 5624 5619 5613 5607 5601 5594 5588 5581 5575 5569 5562 5555 5548 5542 5535 5529 5524 5518 5511 5503 5495 5489 5485 5478 5472
5691 5688 5685 5682 5678 5674 5671 5666 5662 5657 5652 5647 5642 5637 5632 5626 5621 5615 5610 5605 5599 5592 5585 5578 5571 5564 5557 5550 5544 5537 5530 5523 5516 5509 5503 5497 5490 5482 5474 5467 5462 5457 5452
5681 5678 5674 5671 5667 5663 5659 5654 5650 5645 5640 5635 5629 5624 5618 5612 5606 5600 5595 5589 5583 5576 5570 5562 5554 5547 5539 5532 5524 5517 5509 5501 5494 5487 5481 5475 5468 5460 5452 5445 5440 5436 5433
5670 5666 5663 5659 5655 5651 5647 5642 5637 5632 5627 5621 5616 5610 5604 5597 5591 5585 5579 5573 5567 5559 5552 5544 5537 5529 5520 5513 5506 5498 5490 5480 5472 5464 5459 5452 5445 5438 5430 5425 5419 5414 5412
5658 5655 5651 5648 5643 5639 5634 5629 5624 5619 5614 5608 5602 5596 5589 5583 5576 5569 5563 5556 5550 5542 5534 5526 5518 5510 5501 5492 5486 5479 5471 5462 5451 5443 5437 5431 5423 5416 5409 5404 5399 5396 5394
5647 5643 5639 5635 5631 5626 5622 5616 5611 5606 5600 5594 5587 5581 5574 5568 5560 5552 5545 5539 5532 5525 5516 5507 5498 5490 5481 5472 5464 5458 5452 5443 5432 5423 5416 5410 5403 5397 5390 5385 5381 5378 5377
5635 5631 5627 5623 5618 5614 5608 5603 5597 5591 5586 5579 5573 5566 5558 5551 5543 5535 5527 5520 5514 5507 5499 5489 5479 5469 5461 5451 5442 5435 5428 5422 5413 5406 5398 5391 5385 5379 5373 5368 5365 5362 5361
5623 5619 5615 5610 5605 5600 5595 5589 5583 5577 5571 5565 5558 5551 5543 5534 5526 5517 5508 5499 5492 5485 5478 5470 5460 5449 5440 5430 5420 5412 5405 5398 5392 5386 5380 5374 5368 5363 5359 5354 5351 5348 5347
5611 5607 5602 5597 5592 5586 5580 5574 5568 5561 5555 5548 5541 5535 5526 5517 5507 5498 5488 5479 5470 5462 5456 5448 5439 5429 5419 5410 5400 5392 5384 5377 5371 5367 5362 5357 5353 5349 5345 5341 5338 5336 5335
5599 5594 5589 5583 5577 5571 5565 5559 5553 5545 5538 5531 5524 5516 5509 5500 5489 5479 5469 5459 5449 5440 5433 5425 5416 5407 5398 5389 5380 5372 5364 5358 5353 5349 5345 5342 5338 5334 5331 5329 5327 5325 5324
5585 5580 5575 5569 5563 5557 5550 5544 5537 5529 5521 5513 5505 5497 5490 5481 5471 5460 5450 5440 5430 5420 5411 5404 5395 5386 5377 5368 5361 5354 5347 5341 5337 5333 5330 5327 5324 5322 5319 5317 5316 5315 5315
5572 5566 5561 5555 5549 5542 5535 5528 5520 5512 5502 5494 5485 5476 5467 5460 5451 5438 5428 5419 5409 5400 5390 5383 5375 5367 5359 5351 5344 5338 5332 5327 5322 5319 5316 5314 5312 5310 5308 5307 5306 5306 5305
5558 5552 5546 5540 5533 5526 5519 5513 5504 5495 5486 5475 5464 5454 5445 5436 5427 5418 5407 5396 5387 5376 5367 5360 5353 5346 5339 5333 5327 5323 5318 5313 5309 5306 5304 5302 5301 5299 5298 5297 5297 5297 5297
5543 5538 5531 5525 5517 5510 5502 5494 5488 5480 5469 5458 5446 5435 5423 5414 5405 5395 5384 5374 5366 5355 5346 5339 5333 5327 5321 5316 5311 5307 5303 5300 5297 5295 5293 5291 5290 5289 5288 5288 5287 5288 5288
5529 5522 5515 5508 5501 5493 5484 5475 5467 5459 5452 5443 5430 5416 5404 5393 5383 5373 5362 5352 5345 5337 5328 5321 5316 5310 5305 5300 5296 5293 5290 5288 5286 5284 5282 5281 5280 5279 5279 5278 5279 5279 5280
5513 5507 5499 5492 5483 5475 5466 5457 5447 5438 5428 5420 5411 5400 5385 5373 5363 5353 5342 5332 5325 5319 5312 5305 5300 5294 5290 5286 5283 5280 5278 5276 5275 5273 5272 5271 5270 5270 5270 5270 5270 5271 5272
5497 5490 5482 5474 5465 5456 5447 5437 5428 5417 5407 5398 5388 5377 5365 5353 5344 5336 5326 5316 5308 5302 5296 5290 5285 5280 5276 5273 5270 5268 5267 5266 5265 5263 5263 5262 5261 5261 5262 5262 5262 5263 5264
5481 5473 5464 5455 5446 5437 5427 5417 5407 5397 5386 5376 5366 5355 5343 5333 5325 5318 5310 5302 5294 5287 5281 5276 5272 5268 5264 5261 5259 5257 5256 5256 5255 5254 5253 5253 5253 5253 5254 5254 5255 5255 5256
5462 5454 5445 5436 5427 5417 5407 5397 5386 5375 5365 5355 5345 5336 5326 5316 5308 5301 5294 5287 5280 5274 5268 5263 5259 5256 5253 5250 5248 5247 5246 5246 5245 5245 5244 5244 5245 5245 5246 5246 5247 5248 5249
5444 5435 5426 5416 5406 5396 5386 5376 5365 5355 5344 5335 5326 5317 5309 5300 5293 5286 5280 5273 5267 5261 5256 5252 5249 5246 5243 5240 5239 5238 5237 5237 5236 5236 5236 5236 5237 5237 5238 5239 5239 5240 5241
5424 5415 5406 5396 5386 5376 5366 5356 5345 5335 5325 5316 5308 5299 5292 5284 5278 5271 5265 5260 5255 5250 5245 5241 5238 5235 5233 5231 5230 5229 5228 5228 5228 5228 5228 5228 5229 5229 5230 5231 5232 5233 5234
5405 5395 5386 5376 5366 5356 5346 5336 5326 5317 5308 5299 5291 5283 5276 5269 5263 5257 5252 5247 5242 5238 5234 5231 5228 5225 5224 5222 5221 5220 5220 5219 5219 5219 5219 5220 5221 5221 5222 5223 5224 5225 5226
5385 5375 5366 5356 5346 5336 5326 5317 5308 5299 5290 5282 5274 5267 5260 5254 5249 5243 5239 5234 5230 5227 5224 5221 5218 5216 5214 5213 5212 5211 5211 5210 5210 5210 5211 5211 5212 5213 5213 5214 5215 5216 5217